,,Stat6,,Stat2,,Stat8,,Stat9,,Stat10,,Wind1,,Wind1,
time,status,PA1M_AVG,status,PR1M_SUM,status,RH1M_AVG,status,SR1M_AVG,status,TA1M_AVG,status,W1dAve1m,status,W1sAve1m,
2004-11-13, 00:00:01,VALID,919.227,VALID,0,VALID,98.3764,VALID,-0.0169808,VALID,19.7499,VALID,108,VALID,1.35816,
2004-11-13, 00:01:01,VALID,919.225,VALID,0,VALID,98.3866,VALID,0,VALID,19.7857,VALID,113,VALID,1.03524,
2004-11-13, 00:02:00,VALID,919.24,VALID,0,VALID,98.2938,VALID,0.0169808,VALID,19.779,VALID,120,VALID,1.25654,
2004-11-13, 00:03:00,VALID,919.237,VALID,0,VALID,98.2823,VALID,0,VALID,19.7792,VALID,129,VALID,1.56822,
2004-11-13, 00:04:00,VALID,919.235,VALID,0,VALID,98.2505,VALID,0,VALID,19.7795,VALID,130,VALID,1.95839,
2004-11-13, 00:05:01,VALID,919.242,VALID,0,VALID,98.2009,VALID,-0.0169808,VALID,19.7857,VALID,127,VALID,1.53068,
2004-11-13, 00:06:00,VALID,919.229,VALID,0,VALID,98.2785,VALID,0,VALID,19.7822,VALID,149,VALID,1.31631,
2004-11-13, 00:07:00,VALID,919.225,VALID,0,VALID,98.3561,VALID,-0.0169808,VALID,19.7758,VALID,158,VALID,1.18638,
2004-11-13, 00:08:00,VALID,919.224,VALID,0,VALID,98.4298,VALID,0,VALID,19.7666,VALID,164,VALID,1.24758,
2004-11-13, 00:09:00,VALID,919.21,VALID,0,VALID,98.4553,VALID,0,VALID,19.7599,VALID,164,VALID,1.19959,
2004-11-13, 00:10:01,VALID,919.188,VALID,0,VALID,98.5354,VALID,0,VALID,19.7631,VALID,171,VALID,0.601895,
2004-11-13, 00:11:01,VALID,919.159,VALID,0,VALID,98.646,VALID,0,VALID,19.7536,VALID,173,VALID,1.04403,
2004-11-13, 00:12:00,VALID,919.131,VALID,0,VALID,98.7401,VALID,0,VALID,19.7536,VALID,191,VALID,0.740589,
2004-11-13, 00:13:00,VALID,919.09,VALID,0,VALID,98.824,VALID,-0.0169808,VALID,19.744,VALID,171,VALID,1.19401,
2004-11-13, 00:14:00,VALID,919.081,VALID,0,VALID,98.8469,VALID,0,VALID,19.7278,VALID,186,VALID,1.28963,
2004-11-13, 00:15:00,VALID,919.035,VALID,0,VALID,98.9677,VALID,0,VALID,19.7375,VALID,191,VALID,0.597565,
2004-11-13, 00:16:01,VALID,919.003,VALID,0,VALID,98.9995,VALID,-0.0169808,VALID,19.7238,VALID,180,VALID,0.653888,
2004-11-13, 00:17:00,VALID,918.973,VALID,0,VALID,98.9944,VALID,0.0509425,VALID,19.7243,VALID,175,VALID,0.860069,
2004-11-13, 00:18:01,VALID,918.931,VALID,0,VALID,99.0275,VALID,0,VALID,19.702,VALID,157,VALID,0.616257,
2004-11-13, 00:19:00,VALID,918.889,VALID,0,VALID,99.1292,VALID,0,VALID,19.6858,VALID,161,VALID,0.725419,
2004-11-13, 00:20:00,VALID,918.845,VALID,0,VALID,99.1902,VALID,0.0169808,VALID,19.6727,VALID,158,VALID,0.381037,
2004-11-13, 00:21:00,VALID,918.819,VALID,0,VALID,99.2754,VALID,0.0169808,VALID,19.6664,VALID,126,VALID,0.740189,
2004-11-13, 00:22:00,VALID,918.789,VALID,0,VALID,99.2271,VALID,0,VALID,19.657,VALID,120,VALID,0.894965,
2004-11-13, 00:23:01,VALID,918.79,VALID,0,VALID,99.0809,VALID,0.0339617,VALID,19.6568,VALID,128,VALID,1.12555,
2004-11-13, 00:24:00,VALID,918.803,VALID,0,VALID,98.9842,VALID,0.0169808,VALID,19.6858,VALID,103,VALID,1.04724,
2004-11-13, 00:25:01,VALID,918.779,VALID,0,VALID,98.8863,VALID,0.0169808,VALID,19.6918,VALID,127,VALID,1.82249,
2004-11-13, 00:26:01,VALID,918.774,VALID,0,VALID,98.8113,VALID,0,VALID,19.7149,VALID,114,VALID,1.5435,
2004-11-13, 00:27:01,VALID,918.773,VALID,0,VALID,98.7693,VALID,0,VALID,19.7246,VALID,118,VALID,1.3666,
2004-11-13, 00:28:01,VALID,918.739,VALID,0,VALID,98.7375,VALID,0,VALID,19.7211,VALID,104,VALID,1.3331,
2004-11-13, 00:29:00,VALID,918.712,VALID,0,VALID,98.7096,VALID,0,VALID,19.7179,VALID,120,VALID,1.5584,
2004-11-13, 00:30:00,VALID,918.68,VALID,0,VALID,98.6574,VALID,0.0169808,VALID,19.7308,VALID,128,VALID,1.29762,
2004-11-13, 00:31:00,VALID,918.663,VALID,0,VALID,98.66,VALID,0,VALID,19.7305,VALID,121,VALID,1.09139,
2004-11-13, 00:32:00,VALID,918.634,VALID,0,VALID,98.688,VALID,0.0339617,VALID,19.7238,VALID,122,VALID,1.19407,
2004-11-13, 00:33:00,VALID,918.629,VALID,0,VALID,98.7363,VALID,0.0169808,VALID,19.7176,VALID,137,VALID,0.681504,
2004-11-13, 00:34:01,VALID,918.631,VALID,0,VALID,98.8278,VALID,0,VALID,19.7181,VALID,125,VALID,0.959722,
2004-11-13, 00:35:00,VALID,918.622,VALID,0,VALID,98.838,VALID,0,VALID,19.7114,VALID,121,VALID,0.959409,
2004-11-13, 00:36:01,VALID,918.612,VALID,0,VALID,98.8901,VALID,0.0339617,VALID,19.6886,VALID,107,VALID,0.801482,
2004-11-13, 00:37:00,VALID,918.609,VALID,0,VALID,98.9359,VALID,0.0169808,VALID,19.6881,VALID,139,VALID,0.684642,
2004-11-13, 00:38:01,VALID,918.593,VALID,0,VALID,98.9486,VALID,0,VALID,19.6856,VALID,146,VALID,0.59593,
2004-11-13, 00:39:00,VALID,918.588,VALID,0,VALID,99.0186,VALID,0.0509425,VALID,19.6786,VALID,159,VALID,0.68407,
2004-11-13, 00:40:00,VALID,918.572,VALID,0,VALID,99.0872,VALID,0.0339617,VALID,19.6694,VALID,165,VALID,0.703993,
2004-11-13, 00:41:01,VALID,918.543,VALID,0,VALID,99.1496,VALID,0.0169808,VALID,19.6394,VALID,168,VALID,0.947856,
2004-11-13, 00:42:01,VALID,918.524,VALID,0,VALID,99.2042,VALID,0.0339617,VALID,19.6337,VALID,170,VALID,0.864211,
2004-11-13, 00:43:00,VALID,918.514,VALID,0,VALID,99.2538,VALID,0.0339617,VALID,19.6302,VALID,173,VALID,0.860647,
2004-11-13, 00:44:01,VALID,918.515,VALID,0,VALID,99.3225,VALID,0.0169808,VALID,19.624,VALID,171,VALID,0.610069,
2004-11-13, 00:45:01,VALID,918.522,VALID,0,VALID,99.3886,VALID,0.0169808,VALID,19.6078,VALID,161,VALID,0.880716,
2004-11-13, 00:46:00,VALID,918.528,VALID,0,VALID,99.4255,VALID,0.0169808,VALID,19.5847,VALID,151,VALID,0.809659,
2004-11-13, 00:47:01,VALID,918.523,VALID,0,VALID,99.4827,VALID,0,VALID,19.5889,VALID,152,VALID,0.804874,
2004-11-13, 00:48:00,VALID,918.517,VALID,0,VALID,99.5844,VALID,0.0169808,VALID,19.5795,VALID,128,VALID,0.768111,
2004-11-13, 00:49:00,VALID,918.517,VALID,0,VALID,99.634,VALID,0.0169808,VALID,19.5629,VALID,117,VALID,0.736281,
2004-11-13, 00:50:01,VALID,918.525,VALID,0,VALID,99.6836,VALID,0,VALID,19.5534,VALID,88,VALID,0.830487,
2004-11-13, 00:51:00,VALID,918.507,VALID,0,VALID,99.7497,VALID,0.0169808,VALID,19.5691,VALID,55,VALID,0.336301,
2004-11-13, 00:52:01,VALID,918.506,VALID,0,VALID,99.779,VALID,0.0169808,VALID,19.5596,VALID,50,VALID,0.630907,
2004-11-13, 00:53:00,VALID,918.513,VALID,0,VALID,99.8527,VALID,0.0339617,VALID,19.5591,VALID,58,VALID,0.578506,
2004-11-13, 00:54:01,VALID,918.511,VALID,0,VALID,99.8273,VALID,0.0509425,VALID,19.5564,VALID,53,VALID,0.769618,
2004-11-13, 00:55:00,VALID,918.519,VALID,0,VALID,99.8362,VALID,0,VALID,19.576,VALID,55,VALID,0.710379,
2004-11-13, 00:56:00,VALID,918.501,VALID,0,VALID,99.7637,VALID,0,VALID,19.5561,VALID,55,VALID,0.560865,
2004-11-13, 00:57:00,VALID,918.491,VALID,0,VALID,99.7574,VALID,0,VALID,19.5631,VALID,59,VALID,0.562137,
2004-11-13, 00:58:00,VALID,918.477,VALID,0,VALID,99.7701,VALID,0.0169808,VALID,19.5561,VALID,26,VALID,0.688859,
2004-11-13, 00:59:01,VALID,918.454,VALID,0,VALID,99.7815,VALID,0,VALID,19.5696,VALID,11,VALID,0.717607,
2004-11-13, 01:00:00,VALID,918.426,VALID,0,VALID,99.7841,VALID,0.0509425,VALID,19.5494,VALID,11,VALID,0.590021,
2004-11-13, 01:01:00,VALID,918.418,VALID,0,VALID,99.8019,VALID,0,VALID,19.5437,VALID,11,VALID,0.326527,
2004-11-13, 01:02:00,VALID,918.406,VALID,0,VALID,99.8451,VALID,0.0169808,VALID,19.5241,VALID,11,VALID,0.393643,
2004-11-13, 01:03:00,VALID,918.408,VALID,0,VALID,99.8629,VALID,0.0169808,VALID,19.4983,VALID,8,VALID,0.25744,
2004-11-13, 01:04:00,VALID,918.405,VALID,0,VALID,99.9746,VALID,0,VALID,19.4724,VALID,8,VALID,0,
2004-11-13, 01:05:01,VALID,918.394,VALID,0,VALID,100,VALID,0,VALID,19.4625,VALID,8,VALID,0.000558036,
2004-11-13, 01:06:01,VALID,918.398,VALID,0,VALID,100,VALID,0,VALID,19.4533,VALID,8,VALID,0.256138,
2004-11-13, 01:07:00,VALID,918.388,VALID,0,VALID,100,VALID,0.0169808,VALID,19.427,VALID,8,VALID,0.167225,
2004-11-13, 01:08:01,VALID,918.375,VALID,0,VALID,100,VALID,-0.0169808,VALID,19.4404,VALID,8,VALID,0.00669643,
2004-11-13, 01:09:01,VALID,918.362,VALID,0,VALID,100,VALID,0.0339617,VALID,19.4434,VALID,8,VALID,0.0793269,
2004-11-13, 01:10:01,VALID,918.334,VALID,0,VALID,100,VALID,0.0169808,VALID,19.4528,VALID,8,VALID,0,
2004-11-13, 01:11:01,VALID,918.3,VALID,0,VALID,100,VALID,0,VALID,19.4694,VALID,8,VALID,0,
2004-11-13, 01:12:01,VALID,918.271,VALID,0,VALID,100,VALID,0.0339617,VALID,19.4627,VALID,8,VALID,0,
2004-11-13, 01:13:01,VALID,918.261,VALID,0,VALID,100,VALID,0,VALID,19.4627,VALID,8,VALID,0.0131479,
2004-11-13, 01:14:00,VALID,918.26,VALID,0,VALID,100,VALID,0.0339617,VALID,19.4526,VALID,8,VALID,0.177641,
2004-11-13, 01:15:01,VALID,918.24,VALID,0,VALID,100,VALID,0,VALID,19.4563,VALID,7,VALID,0.386628,
2004-11-13, 01:16:01,VALID,918.264,VALID,0,VALID,100,VALID,0,VALID,19.4535,VALID,327,VALID,0.213605,
2004-11-13, 01:17:01,VALID,918.259,VALID,0,VALID,100,VALID,0.0169808,VALID,19.4302,VALID,325,VALID,0.348157,
2004-11-13, 01:18:00,VALID,918.25,VALID,0,VALID,100,VALID,-0.0169808,VALID,19.4245,VALID,276,VALID,0.548735,
2004-11-13, 01:19:00,VALID,918.235,VALID,0,VALID,100,VALID,-0.0169808,VALID,19.4113,VALID,272,VALID,0.0794922,
2004-11-13, 01:20:00,VALID,918.219,VALID,0,VALID,100,VALID,0,VALID,19.4049,VALID,272,VALID,0.158026,
2004-11-13, 01:21:01,VALID,918.215,VALID,0,VALID,100,VALID,0,VALID,19.4019,VALID,272,VALID,0.00381541,
2004-11-13, 01:22:01,VALID,918.203,VALID,0,VALID,100,VALID,0.0169808,VALID,19.3914,VALID,272,VALID,0.124092,
2004-11-13, 01:23:01,VALID,918.18,VALID,0,VALID,100,VALID,-0.0169808,VALID,19.3919,VALID,271,VALID,0.000363372,
2004-11-13, 01:24:01,VALID,918.169,VALID,0,VALID,100,VALID,0,VALID,19.3887,VALID,270,VALID,0.178686,
2004-11-13, 01:25:01,VALID,918.158,VALID,0,VALID,100,VALID,0,VALID,19.385,VALID,269,VALID,0.123935,
2004-11-13, 01:26:01,VALID,918.164,VALID,0,VALID,100,VALID,0.0169808,VALID,19.376,VALID,184,VALID,0.442645,
2004-11-13, 01:27:00,VALID,918.137,VALID,0,VALID,100,VALID,0.0339617,VALID,19.3631,VALID,175,VALID,0.0285823,
2004-11-13, 01:28:00,VALID,918.126,VALID,0,VALID,100,VALID,0,VALID,19.343,VALID,175,VALID,0,
2004-11-13, 01:29:01,VALID,918.1,VALID,0,VALID,100,VALID,0.0169808,VALID,19.3495,VALID,175,VALID,0,
2004-11-13, 01:30:01,VALID,918.088,VALID,0,VALID,100,VALID,0,VALID,19.3465,VALID,175,VALID,0.0251736,
2004-11-13, 01:31:00,VALID,918.081,VALID,0,VALID,100,VALID,0,VALID,19.337,VALID,176,VALID,0.220618,
2004-11-13, 01:32:01,VALID,918.065,VALID,0,VALID,100,VALID,0,VALID,19.3306,VALID,180,VALID,0.226749,
2004-11-13, 01:33:01,VALID,918.067,VALID,0,VALID,100,VALID,0,VALID,19.3172,VALID,149,VALID,0.335938,
2004-11-13, 01:34:01,VALID,918.07,VALID,0,VALID,100,VALID,-0.0169808,VALID,19.3047,VALID,99,VALID,0.782885,
2004-11-13, 01:35:01,VALID,918.055,VALID,0,VALID,100,VALID,0,VALID,19.302,VALID,72,VALID,1.0627,
2004-11-13, 01:36:01,VALID,918.03,VALID,0,VALID,100,VALID,0,VALID,19.2918,VALID,61,VALID,0.825994,
2004-11-13, 01:37:01,VALID,918.007,VALID,0,VALID,100,VALID,0,VALID,19.2953,VALID,79,VALID,0.212426,
2004-11-13, 01:38:01,VALID,917.99,VALID,0,VALID,100,VALID,0,VALID,19.2953,VALID,99,VALID,0.559593,
2004-11-13, 01:39:01,VALID,917.968,VALID,0,VALID,100,VALID,0.0169808,VALID,19.298,VALID,98,VALID,0.609961,
2004-11-13, 01:40:01,VALID,917.935,VALID,0,VALID,100,VALID,0,VALID,19.3015,VALID,98,VALID,0.288194,
2004-11-13, 01:41:01,VALID,917.895,VALID,0,VALID,100,VALID,-0.0169808,VALID,19.2921,VALID,98,VALID,0.167597,
2004-11-13, 01:42:01,VALID,917.871,VALID,0,VALID,100,VALID,0,VALID,19.2988,VALID,98,VALID,0.0901989,
2004-11-13, 01:43:01,VALID,917.852,VALID,0,VALID,100,VALID,0,VALID,19.2854,VALID,98,VALID,0.00203804,
2004-11-13, 01:44:01,VALID,917.834,VALID,0,VALID,100,VALID,0,VALID,19.2824,VALID,98,VALID,0.460938,
2004-11-13, 01:45:01,VALID,917.82,VALID,0,VALID,100,VALID,0,VALID,19.2757,VALID,101,VALID,0.574591,
2004-11-13, 01:46:01,VALID,917.805,VALID,0,VALID,100,VALID,-0.0679233,VALID,19.267,VALID,106,VALID,0.55506,
2004-11-13, 01:47:01,VALID,917.793,VALID,0,VALID,100,VALID,-0.0849042,VALID,19.2645,VALID,108,VALID,0.347479,
2004-11-13, 01:48:01,VALID,917.786,VALID,0,VALID,100,VALID,-0.101885,VALID,19.2647,VALID,108,VALID,0.244097,
2004-11-13, 01:49:01,VALID,917.759,VALID,0,VALID,100,VALID,-0.0849042,VALID,19.2419,VALID,108,VALID,0.0430556,
2004-11-13, 01:50:01,VALID,917.74,VALID,0,VALID,100,VALID,-0.101885,VALID,19.2193,VALID,108,VALID,0.165799,
2004-11-13, 01:51:01,VALID,917.723,VALID,0,VALID,100,VALID,-0.101885,VALID,19.1765,VALID,50,VALID,0.629542,
2004-11-13, 01:52:01,VALID,917.703,VALID,0,VALID,100,VALID,-0.101885,VALID,19.174,VALID,69,VALID,0.562314,
2004-11-13, 01:53:01,VALID,917.692,VALID,0,VALID,100,VALID,-0.101885,VALID,19.1835,VALID,97,VALID,0.754764,
2004-11-13, 01:54:01,VALID,917.695,VALID,0,VALID,100,VALID,-0.101885,VALID,19.1994,VALID,92,VALID,0.844122,
2004-11-13, 01:55:01,VALID,917.674,VALID,0,VALID,100,VALID,-0.101885,VALID,19.2029,VALID,72,VALID,0.827009,
2004-11-13, 01:56:01,VALID,917.665,VALID,0,VALID,100,VALID,-0.118866,VALID,19.2255,VALID,49,VALID,0.756324,
2004-11-13, 01:57:00,VALID,917.64,VALID,0,VALID,100,VALID,-0.101885,VALID,19.261,VALID,48,VALID,0.431445,
2004-11-13, 01:58:00,VALID,917.615,VALID,0,VALID,100,VALID,-0.0849042,VALID,19.2615,VALID,48,VALID,0.456214,
2004-11-13, 01:59:00,VALID,917.592,VALID,0,VALID,99.9878,VALID,-0.0849042,VALID,19.2317,VALID,47,VALID,0.69549,
2004-11-13, 02:00:00,VALID,917.572,VALID,0,VALID,99.9878,VALID,-0.101885,VALID,19.2289,VALID,46,VALID,0.41806,
2004-11-13, 02:01:00,VALID,917.563,VALID,0,VALID,100,VALID,-0.0339617,VALID,19.2501,VALID,46,VALID,0.114955,
2004-11-13, 02:02:00,VALID,917.554,VALID,0,VALID,100,VALID,0,VALID,19.2824,VALID,46,VALID,0,
2004-11-13, 02:03:00,VALID,917.549,VALID,0,VALID,100,VALID,0,VALID,19.2988,VALID,46,VALID,0,
2004-11-13, 02:04:00,VALID,917.538,VALID,0,VALID,99.9939,VALID,0,VALID,19.2886,VALID,74,VALID,0.167014,
2004-11-13, 02:05:00,VALID,917.549,VALID,0,VALID,99.7854,VALID,0,VALID,19.2826,VALID,168,VALID,1.07304,
2004-11-13, 02:06:00,VALID,917.538,VALID,0,VALID,99.6404,VALID,0.0169808,VALID,19.2277,VALID,174,VALID,1.26385,
2004-11-13, 02:07:00,VALID,917.544,VALID,0,VALID,99.7205,VALID,0,VALID,19.2019,VALID,176,VALID,0.898256,
2004-11-13, 02:08:00,VALID,917.524,VALID,0,VALID,99.854,VALID,0.0169808,VALID,19.2017,VALID,196,VALID,0.865552,
2004-11-13, 02:09:00,VALID,917.505,VALID,0,VALID,99.91,VALID,0.0169808,VALID,19.2046,VALID,205,VALID,0.813033,
2004-11-13, 02:10:00,VALID,917.491,VALID,0,VALID,99.9723,VALID,0.0169808,VALID,19.2307,VALID,207,VALID,0.719105,
2004-11-13, 02:11:00,VALID,917.495,VALID,0,VALID,99.9896,VALID,0.0339617,VALID,19.2695,VALID,198,VALID,1.07049,
2004-11-13, 02:12:00,VALID,917.498,VALID,0,VALID,99.8693,VALID,0.0169808,VALID,19.2762,VALID,207,VALID,0.824505,
2004-11-13, 02:13:00,VALID,917.514,VALID,0,VALID,99.7866,VALID,0,VALID,19.2339,VALID,194,VALID,0.751334,
2004-11-13, 02:14:00,VALID,917.486,VALID,0,VALID,99.84,VALID,0.0339617,VALID,19.2046,VALID,197,VALID,0.874637,
2004-11-13, 02:15:00,VALID,917.465,VALID,0,VALID,99.958,VALID,0.0169808,VALID,19.1594,VALID,224,VALID,0.864583,
2004-11-13, 02:16:00,VALID,917.429,VALID,0,VALID,100,VALID,0,VALID,19.1175,VALID,202,VALID,1.05126,
2004-11-13, 02:17:00,VALID,917.405,VALID,0,VALID,100,VALID,0.0339617,VALID,19.1016,VALID,196,VALID,0.506055,
2004-11-13, 02:18:00,VALID,917.377,VALID,0,VALID,100,VALID,0.0339617,VALID,19.0685,VALID,189,VALID,0.959028,
2004-11-13, 02:19:00,VALID,917.372,VALID,0,VALID,100,VALID,0.0339617,VALID,19.0727,VALID,188,VALID,0.742914,
2004-11-13, 02:20:00,VALID,917.38,VALID,0,VALID,100,VALID,0.0339617,VALID,19.0499,VALID,191,VALID,0.983665,
2004-11-13, 02:21:00,VALID,917.399,VALID,0,VALID,100,VALID,0.0169808,VALID,19.0462,VALID,178,VALID,1.16477,
2004-11-13, 02:22:00,VALID,917.401,VALID,0,VALID,100,VALID,0,VALID,19.0598,VALID,173,VALID,0.984197,
2004-11-13, 02:23:00,VALID,917.406,VALID,0,VALID,100,VALID,0,VALID,19.0499,VALID,172,VALID,0.981105,
2004-11-13, 02:24:00,VALID,917.429,VALID,0,VALID,100,VALID,0,VALID,19.063,VALID,195,VALID,0.60766,
2004-11-13, 02:25:00,VALID,917.422,VALID,0,VALID,100,VALID,0,VALID,19.063,VALID,185,VALID,0.56871,
2004-11-13, 02:26:00,VALID,917.445,VALID,0,VALID,100,VALID,0,VALID,19.0663,VALID,185,VALID,0.37407,
2004-11-13, 02:27:00,VALID,917.449,VALID,0,VALID,100,VALID,0,VALID,19.0891,VALID,183,VALID,0.368075,
2004-11-13, 02:28:00,VALID,917.416,VALID,0,VALID,100,VALID,0,VALID,19.0856,VALID,184,VALID,0.0748857,
2004-11-13, 02:29:00,VALID,917.388,VALID,0,VALID,100,VALID,0.0169808,VALID,19.1177,VALID,184,VALID,0.0208939,
2004-11-13, 02:30:00,VALID,917.343,VALID,0,VALID,100,VALID,0,VALID,19.1634,VALID,193,VALID,0.504687,
2004-11-13, 02:31:00,VALID,917.323,VALID,0,VALID,100,VALID,-0.0509425,VALID,19.1932,VALID,218,VALID,0.507267,
2004-11-13, 02:32:00,VALID,917.283,VALID,0,VALID,100,VALID,-0.0849042,VALID,19.2128,VALID,159,VALID,0.369965,
2004-11-13, 02:33:00,VALID,917.248,VALID,0,VALID,100,VALID,-0.135847,VALID,19.1974,VALID,170,VALID,0.849787,
2004-11-13, 02:34:00,VALID,917.214,VALID,0,VALID,100,VALID,-0.118866,VALID,19.1966,VALID,177,VALID,0.97619,
2004-11-13, 02:35:00,VALID,917.175,VALID,0,VALID,100,VALID,-0.101885,VALID,19.2098,VALID,187,VALID,0.663504,
2004-11-13, 02:36:00,VALID,917.158,VALID,0,VALID,99.9234,VALID,-0.101885,VALID,19.2225,VALID,164,VALID,0.690451,
2004-11-13, 02:37:00,VALID,917.137,VALID,0,VALID,99.6658,VALID,-0.101885,VALID,19.2133,VALID,145,VALID,0.686198,
2004-11-13, 02:38:00,VALID,917.113,VALID,0,VALID,99.6213,VALID,-0.101885,VALID,19.1778,VALID,142,VALID,0.513207,
2004-11-13, 02:39:00,VALID,917.078,VALID,0,VALID,99.6811,VALID,-0.101885,VALID,19.1482,VALID,195,VALID,0.279652,
2004-11-13, 02:40:00,VALID,917.069,VALID,0,VALID,99.7281,VALID,-0.101885,VALID,19.1551,VALID,236,VALID,0.0998047,
2004-11-13, 02:41:00,VALID,917.056,VALID,0,VALID,99.6035,VALID,-0.101885,VALID,19.1194,VALID,160,VALID,0.513822,
2004-11-13, 02:42:00,VALID,917.025,VALID,0,VALID,99.6671,VALID,-0.101885,VALID,19.0772,VALID,128,VALID,0.330543,
2004-11-13, 02:43:00,VALID,917.002,VALID,0,VALID,99.8082,VALID,-0.101885,VALID,19.0516,VALID,126,VALID,0.058431,
2004-11-13, 02:44:00,VALID,916.998,VALID,0,VALID,99.984,VALID,-0.101885,VALID,19.0546,VALID,130,VALID,0.339658,
2004-11-13, 02:45:00,VALID,916.996,VALID,0,VALID,100,VALID,-0.101885,VALID,19.0712,VALID,141,VALID,0.351935,
2004-11-13, 02:46:00,VALID,916.99,VALID,0,VALID,100,VALID,-0.0679233,VALID,19.0697,VALID,178,VALID,0.414807,
2004-11-13, 02:47:00,VALID,916.975,VALID,0,VALID,100,VALID,0,VALID,19.0956,VALID,181,VALID,0.684896,
2004-11-13, 02:48:00,VALID,916.964,VALID,0,VALID,100,VALID,0.0169808,VALID,19.1187,VALID,189,VALID,0.417683,
2004-11-13, 02:49:00,VALID,916.948,VALID,0,VALID,100,VALID,0,VALID,19.1539,VALID,191,VALID,0.539249,
2004-11-13, 02:50:00,VALID,916.931,VALID,0,VALID,99.9926,VALID,0,VALID,19.1989,VALID,171,VALID,0.387536,
2004-11-13, 02:51:00,VALID,916.932,VALID,0,VALID,99.8222,VALID,0,VALID,19.2084,VALID,154,VALID,0.987038,
2004-11-13, 02:52:00,VALID,916.922,VALID,0,VALID,99.8273,VALID,0,VALID,19.1987,VALID,158,VALID,0.861861,
2004-11-13, 02:53:00,VALID,916.914,VALID,0,VALID,99.8095,VALID,0,VALID,19.2473,VALID,171,VALID,0.68388,
2004-11-13, 02:54:00,VALID,916.934,VALID,0,VALID,99.7307,VALID,0.0169808,VALID,19.26,VALID,160,VALID,0.530717,
2004-11-13, 02:55:00,VALID,916.937,VALID,0,VALID,99.5399,VALID,0,VALID,19.2697,VALID,159,VALID,0.214367,
2004-11-13, 02:56:00,VALID,916.937,VALID,0,VALID,99.428,VALID,0,VALID,19.2538,VALID,159,VALID,0.171875,
2004-11-13, 02:57:00,VALID,916.938,VALID,0,VALID,99.442,VALID,0,VALID,19.2339,VALID,189,VALID,0.35103,
2004-11-13, 02:58:00,VALID,916.924,VALID,0,VALID,99.4942,VALID,0,VALID,19.2508,VALID,187,VALID,0.0171875,
2004-11-13, 02:59:00,VALID,916.927,VALID,0,VALID,99.4446,VALID,0.0169808,VALID,19.2347,VALID,179,VALID,0.277616,
2004-11-13, 03:00:00,VALID,916.914,VALID,0,VALID,99.5476,VALID,0.0169808,VALID,19.2312,VALID,149,VALID,0.321671,
2004-11-13, 03:01:00,VALID,916.891,VALID,0,VALID,99.6289,VALID,-0.0679233,VALID,19.222,VALID,145,VALID,0.143601,
2004-11-13, 03:02:00,VALID,916.89,VALID,0,VALID,99.5259,VALID,-0.101885,VALID,19.2257,VALID,45,VALID,0.453125,
2004-11-13, 03:03:00,VALID,916.875,VALID,0,VALID,99.6302,VALID,-0.101885,VALID,19.2389,VALID,9,VALID,0.602896,
2004-11-13, 03:04:00,VALID,916.879,VALID,0,VALID,99.3848,VALID,-0.0849042,VALID,19.2319,VALID,74,VALID,0.728871,
2004-11-13, 03:05:00,VALID,916.87,VALID,0,VALID,99.3632,VALID,-0.0849042,VALID,19.1907,VALID,91,VALID,0.46582,
2004-11-13, 03:06:00,VALID,916.864,VALID,0,VALID,99.5437,VALID,-0.0849042,VALID,19.1713,VALID,83,VALID,0.34157,
2004-11-13, 03:07:00,VALID,916.842,VALID,0,VALID,99.5946,VALID,-0.0849042,VALID,19.1549,VALID,18,VALID,0.631214,
2004-11-13, 03:08:00,VALID,916.866,VALID,0,VALID,99.531,VALID,-0.101885,VALID,19.1161,VALID,16,VALID,0.509301,
2004-11-13, 03:09:00,VALID,916.887,VALID,0,VALID,99.5348,VALID,-0.118866,VALID,19.0841,VALID,16,VALID,0.155717,
2004-11-13, 03:10:00,VALID,916.92,VALID,0,VALID,99.6277,VALID,-0.0849042,VALID,19.0677,VALID,16,VALID,0,
2004-11-13, 03:11:00,VALID,916.944,VALID,0,VALID,99.6035,VALID,-0.101885,VALID,19.0327,VALID,16,VALID,0,
2004-11-13, 03:12:00,VALID,916.965,VALID,0,VALID,99.6264,VALID,-0.101885,VALID,19.0103,VALID,16,VALID,0.109553,
2004-11-13, 03:13:00,VALID,916.981,VALID,0,VALID,99.7218,VALID,-0.135847,VALID,18.9944,VALID,9,VALID,0.0841206,
2004-11-13, 03:14:00,VALID,916.993,VALID,0,VALID,99.8993,VALID,-0.118866,VALID,18.984,VALID,4,VALID,0.194965,
2004-11-13, 03:15:00,VALID,917.002,VALID,0,VALID,100,VALID,-0.101885,VALID,19.0093,VALID,359,VALID,0.367759,
2004-11-13, 03:16:00,VALID,916.986,VALID,0,VALID,100,VALID,-0.0339617,VALID,19.0377,VALID,346,VALID,0.506177,
2004-11-13, 03:17:00,VALID,916.984,VALID,0,VALID,100,VALID,0,VALID,19.0538,VALID,320,VALID,0.255632,
2004-11-13, 03:18:00,VALID,916.988,VALID,0,VALID,100,VALID,0,VALID,19.0474,VALID,320,VALID,0.00106534,
2004-11-13, 03:19:00,VALID,916.989,VALID,0,VALID,100,VALID,0,VALID,19.0479,VALID,320,VALID,0,
2004-11-13, 03:20:00,VALID,917.002,VALID,0,VALID,100,VALID,0,VALID,19.0188,VALID,330,VALID,0,
2004-11-13, 03:21:00,VALID,917.014,VALID,0,VALID,100,VALID,-0.0169808,VALID,18.9694,VALID,343,VALID,0,
2004-11-13, 03:22:00,VALID,917.017,VALID,0,VALID,100,VALID,0,VALID,18.944,VALID,11,VALID,0.400073,
2004-11-13, 03:23:00,VALID,917.016,VALID,0,VALID,100,VALID,0,VALID,18.8921,VALID,67,VALID,0.947852,
2004-11-13, 03:24:00,VALID,916.98,VALID,0,VALID,100,VALID,0,VALID,18.8797,VALID,70,VALID,0.830966,
2004-11-13, 03:25:00,VALID,916.957,VALID,0,VALID,100,VALID,0,VALID,18.8467,VALID,56,VALID,0.847569,
2004-11-13, 03:26:00,VALID,916.909,VALID,0,VALID,100,VALID,-0.0169808,VALID,18.8117,VALID,45,VALID,0.783727,
2004-11-13, 03:27:00,VALID,916.87,VALID,0,VALID,100,VALID,0,VALID,18.7697,VALID,45,VALID,0.579268,
2004-11-13, 03:28:00,VALID,916.845,VALID,0,VALID,100,VALID,-0.0169808,VALID,18.7531,VALID,58,VALID,0.507086,
2004-11-13, 03:29:00,VALID,916.827,VALID,0,VALID,100,VALID,0,VALID,18.7694,VALID,72,VALID,0.467115,
2004-11-13, 03:30:00,VALID,916.828,VALID,0,VALID,100,VALID,-0.0169808,VALID,18.7796,VALID,103,VALID,0.62686,
2004-11-13, 03:31:00,VALID,916.818,VALID,0,VALID,100,VALID,0,VALID,18.7992,VALID,126,VALID,0.671701,
2004-11-13, 03:32:00,VALID,916.817,VALID,0,VALID,100,VALID,-0.0169808,VALID,18.7925,VALID,139,VALID,0.71733,
2004-11-13, 03:33:00,VALID,916.826,VALID,0,VALID,100,VALID,0,VALID,18.825,VALID,153,VALID,0.734747,
2004-11-13, 03:34:00,VALID,916.82,VALID,0,VALID,100,VALID,0.0169808,VALID,18.8402,VALID,153,VALID,0.329613,
2004-11-13, 03:35:00,VALID,916.808,VALID,0,VALID,100,VALID,-0.0169808,VALID,18.8437,VALID,135,VALID,0.331214,
2004-11-13, 03:36:00,VALID,916.807,VALID,0,VALID,100,VALID,0,VALID,18.8243,VALID,111,VALID,0.332031,
2004-11-13, 03:37:00,VALID,916.8,VALID,0,VALID,100,VALID,0,VALID,18.8176,VALID,106,VALID,0.224888,
2004-11-13, 03:38:00,VALID,916.796,VALID,0,VALID,100,VALID,-0.0169808,VALID,18.8306,VALID,106,VALID,0.298549,
2004-11-13, 03:39:00,VALID,916.814,VALID,0,VALID,100,VALID,-0.0169808,VALID,18.8599,VALID,106,VALID,0.382631,
2004-11-13, 03:40:00,VALID,916.818,VALID,0,VALID,100,VALID,0,VALID,18.8792,VALID,126,VALID,0.624047,